Location: Heidgraben
(53.7081°N, 9.6576°E)
Time: 03:54:50
(UTC+00:00)

GP-B - Visible Passes

Search period start: 23 October 2020 00:00
Search period end: 02 November 2020 00:00
Orbit: 631 x 635 km, 89.8° (Epoch: 22 October)

Date Brightness Start Highest point End Pass type
(mag) Time Alt. Az. Time Alt. Az. Time Alt. Az.
23 Oct 4.0 03:01:13 11° SSE 03:05:22 47° E 03:09:38 10° N visible
23 Oct 4.1 04:39:15 10° SW 04:42:55 25° WNW 04:46:36 10° NNW visible
24 Oct 6.2 01:48:30 10° E 01:50:22 13° ENE 01:52:15 10° NE visible
24 Oct 3.1 03:25:04 35° SSE 03:26:56 80° E 03:31:24 10° N visible
24 Oct 4.7 05:02:37 11° WSW 05:04:51 15° WNW 05:07:31 10° NW visible
24 Oct 5.9 16:42:22 10° NNW 16:45:38 20° WNW 16:48:52 10° WSW visible
25 Oct 5.6 02:10:35 18° E 02:11:41 20° ENE 02:14:54 10° NNE visible
25 Oct 3.0 03:48:06 57° WSW 03:48:35 61° W 03:53:00 10° N visible
25 Oct 6.2 17:04:58 10° NW 17:06:56 13° WNW 17:08:53 10° W visible
26 Oct 4.8 02:33:18 31° ENE 02:33:18 31° ENE 02:37:01 10° NNE visible
26 Oct 3.7 04:10:49 35° WNW 04:10:49 35° WNW 04:14:28 10° NNW visible
27 Oct 4.3 02:55:50 39° NNE 02:55:50 39° NNE 02:58:54 10° N visible
27 Oct 4.5 04:33:20 20° NW 04:33:20 20° NW 04:35:42 10° NNW visible
28 Oct 6.1 01:40:44 13° NE 01:40:44 13° NE 01:41:47 10° NE visible
28 Oct 4.4 03:18:13 32° N 03:18:13 32° N 03:20:37 10° N visible
28 Oct 5.1 04:55:42 12° NW 04:55:42 12° NW 04:56:31 10° NW visible
28 Oct 5.9 16:31:44 10° NNW 16:34:47 18° WNW 16:37:50 10° WSW visible
29 Oct 5.8 02:03:01 16° NE 02:03:01 16° NE 02:04:15 10° NNE visible
29 Oct 4.7 03:40:31 22° NNW 03:40:31 22° NNW 03:42:12 10° N visible
29 Oct 6.2 16:54:35 10° NW 16:56:05 12° WNW 16:57:35 10° W visible
30 Oct 5.6 02:25:14 16° NNE 02:25:14 16° NNE 02:26:18 10° NNE visible
30 Oct 5.1 04:02:43 15° NNW 04:02:43 15° NNW 04:03:37 10° NNW visible
31 Oct 5.6 02:47:24 15° N 02:47:24 15° N 02:48:09 10° N visible
01 Nov 5.7 03:09:30 12° N 03:09:30 12° N 03:09:50 10° N visible
01 Nov 5.9 16:21:06 10° NNW 16:23:56 17° WNW 16:26:46 10° WSW visible
